Time,TemperatureF,DewpointF,PressureIn,WindDirection,WindDirectionDegrees,WindSpeedMPH,WindSpeedGustMPH,Humidity,HourlyPrecipIn,Conditions,Clouds,dailyrainin,SoftwareType,DateUTC
2013-01-10 00:01:00,22.8,7.8,30.18,South,181,0.0,0.0,52,0.00,,,0.00,VWS V14.01,2013-01-10 06:01:00,
2013-01-10 00:06:00,22.8,7.8,30.18,South,169,2.2,2.2,52,0.00,,,0.00,VWS V14.01,2013-01-10 06:06:00,
2013-01-10 00:11:00,22.8,7.8,30.18,South,181,0.0,2.2,52,0.00,,,0.00,VWS V14.01,2013-01-10 06:11:00,
2013-01-10 00:16:00,23.0,8.4,30.18,South,181,0.0,0.0,53,0.00,,,0.00,VWS V14.01,2013-01-10 06:16:00,
2013-01-10 00:21:00,23.0,8.0,30.18,SSW,204,3.1,3.1,52,0.00,,,0.00,VWS V14.01,2013-01-10 06:21:00,
2013-01-10 00:26:00,22.5,7.5,30.18,SSW,209,4.0,4.0,52,0.00,,,0.00,VWS V14.01,2013-01-10 06:26:00,
2013-01-10 00:31:00,22.8,8.3,30.18,SW,221,3.6,3.6,53,0.00,,,0.00,VWS V14.01,2013-01-10 06:31:00,
2013-01-10 00:36:00,22.8,8.3,30.21,SSW,200,3.1,3.1,53,0.00,,,0.00,VWS V14.01,2013-01-10 06:36:00,
2013-01-10 00:41:00,22.8,8.3,30.18,SSW,195,4.0,4.0,53,0.00,,,0.00,VWS V14.01,2013-01-10 06:41:00,
2013-01-10 00:46:00,24.3,8.3,30.18,SW,218,3.1,3.1,50,0.00,,,0.00,VWS V14.01,2013-01-10 06:46:00,
2013-01-10 00:52:00,24.4,8.0,30.18,South,183,3.1,3.1,49,0.00,,,0.00,VWS V14.01,2013-01-10 06:52:00,
2013-01-10 00:56:00,24.4,8.0,30.18,South,189,3.6,3.6,49,0.00,,,0.00,VWS V14.01,2013-01-10 06:56:00,
2013-01-10 01:02:00,24.6,8.2,30.18,SSW,206,6.3,6.3,49,0.00,,,0.00,VWS V14.01,2013-01-10 07:02:00,
2013-01-10 01:07:00,24.6,7.7,30.18,South,176,3.6,3.6,48,0.00,,,0.00,VWS V14.01,2013-01-10 07:07:00,
2013-01-10 01:12:00,24.6,7.7,30.18,SSE,156,5.4,5.4,48,0.00,,,0.00,VWS V14.01,2013-01-10 07:12:00,
2013-01-10 01:17:00,24.6,7.7,30.18,SE,140,0.0,0.0,48,0.00,,,0.00,VWS V14.01,2013-01-10 07:17:00,
2013-01-10 01:22:00,24.6,7.7,30.18,SSE,159,0.0,3.1,48,0.00,,,0.00,VWS V14.01,2013-01-10 07:22:00,
2013-01-10 01:27:00,24.4,7.6,30.18,SSE,159,0.0,3.1,48,0.00,,,0.00,VWS V14.01,2013-01-10 07:27:00,
2013-01-10 01:32:00,24.4,7.6,30.18,SSE,159,0.0,0.0,48,0.00,,,0.00,VWS V14.01,2013-01-10 07:32:00,
2013-01-10 01:37:00,23.9,6.6,30.18,SSE,159,0.0,0.0,47,0.00,,,0.00,VWS V14.01,2013-01-10 07:37:00,
2013-01-10 01:42:00,23.7,6.4,30.18,SSE,159,0.0,0.0,47,0.00,,,0.00,VWS V14.01,2013-01-10 07:42:00,
2013-01-10 01:47:00,23.5,6.3,30.18,SSE,159,2.7,2.7,47,0.00,,,0.00,VWS V14.01,2013-01-10 07:47:00,
2013-01-10 01:52:00,22.8,5.6,30.18,SSE,159,0.0,0.0,47,0.00,,,0.00,VWS V14.01,2013-01-10 07:52:00,
2013-01-10 01:57:00,22.3,5.6,30.21,SSE,152,3.1,3.1,48,0.00,,,0.00,VWS V14.01,2013-01-10 07:57:00,
2013-01-10 02:02:00,22.5,7.1,30.21,South,175,3.6,3.6,51,0.00,,,0.00,VWS V14.01,2013-01-10 08:02:00,
2013-01-10 02:07:00,22.6,7.7,30.21,South,172,4.0,4.0,52,0.00,,,0.00,VWS V14.01,2013-01-10 08:07:00,
2013-01-10 02:12:00,23.2,8.2,30.21,SSE,150,5.4,5.4,52,0.00,,,0.00,VWS V14.01,2013-01-10 08:12:00,
2013-01-10 02:17:00,23.7,8.7,30.21,SSW,205,5.4,6.3,52,0.00,,,0.00,VWS V14.01,2013-01-10 08:17:00,
2013-01-10 02:22:00,24.1,8.6,30.21,SSE,156,7.6,7.6,51,0.00,,,0.00,VWS V14.01,2013-01-10 08:22:00,
2013-01-10 02:27:00,24.4,8.5,30.21,SE,140,6.3,6.3,50,0.00,,,0.00,VWS V14.01,2013-01-10 08:27:00,
2013-01-10 02:32:00,24.4,8.5,30.21,ESE,121,2.7,2.7,50,0.00,,,0.00,VWS V14.01,2013-01-10 08:32:00,
2013-01-10 02:37:00,25.3,8.4,30.21,South,190,6.3,6.3,48,0.00,,,0.00,VWS V14.01,2013-01-10 08:37:00,
2013-01-10 02:42:00,25.3,8.4,30.21,South,176,11.0,11.0,48,0.00,,,0.00,VWS V14.01,2013-01-10 08:42:00,
2013-01-10 02:47:00,26.1,8.1,30.21,SSE,167,8.1,8.3,46,0.00,,,0.00,VWS V14.01,2013-01-10 08:47:00,
2013-01-10 02:52:00,26.4,8.0,30.21,SSE,159,8.7,11.0,45,0.00,,,0.00,VWS V14.01,2013-01-10 08:52:00,
2013-01-10 02:57:00,26.6,8.1,30.21,SSE,165,5.4,5.4,45,0.00,,,0.00,VWS V14.01,2013-01-10 08:57:00,
2013-01-10 03:02:00,26.8,7.8,30.18,SSE,165,5.4,5.4,44,0.00,,,0.00,VWS V14.01,2013-01-10 09:02:00,
2013-01-10 03:07:00,27.0,8.0,30.18,SSE,160,8.1,8.3,44,0.00,,,0.00,VWS V14.01,2013-01-10 09:07:00,
2013-01-10 03:12:00,27.0,8.0,30.18,SSW,211,9.6,9.6,44,0.00,,,0.00,VWS V14.01,2013-01-10 09:12:00,
2013-01-10 03:17:00,27.1,7.6,30.18,SSE,153,6.3,6.3,43,0.00,,,0.00,VWS V14.01,2013-01-10 09:17:00,
2013-01-10 03:22:00,27.1,7.6,30.18,South,182,8.3,8.3,43,0.00,,,0.00,VWS V14.01,2013-01-10 09:22:00,
2013-01-10 03:27:00,27.1,7.6,30.18,South,179,11.0,11.0,43,0.00,,,0.00,VWS V14.01,2013-01-10 09:27:00,
2013-01-10 03:32:00,27.9,8.3,30.18,SSE,164,8.1,8.1,43,0.00,,,0.00,VWS V14.01,2013-01-10 09:32:00,
2013-01-10 03:37:00,27.9,8.3,30.18,South,181,12.8,12.8,43,0.00,,,0.00,VWS V14.01,2013-01-10 09:37:00,
2013-01-10 03:42:00,28.0,7.9,30.18,SE,131,12.8,12.8,42,0.00,,,0.00,VWS V14.01,2013-01-10 09:42:00,
2013-01-10 03:47:00,28.0,7.9,30.18,South,183,5.8,5.8,42,0.00,,,0.00,VWS V14.01,2013-01-10 09:47:00,
2013-01-10 03:52:00,28.6,7.9,30.18,South,191,10.5,13.2,41,0.00,,,0.00,VWS V14.01,2013-01-10 09:52:00,
2013-01-10 03:57:00,28.8,8.0,30.18,South,191,9.6,9.6,41,0.00,,,0.00,VWS V14.01,2013-01-10 09:57:00,
2013-01-10 04:02:00,28.6,7.9,30.18,ESE,123,8.7,8.7,41,0.00,,,0.00,VWS V14.01,2013-01-10 10:02:00,
2013-01-10 04:07:00,28.4,7.7,30.15,SSE,166,9.6,9.6,41,0.00,,,0.00,VWS V14.01,2013-01-10 10:07:00,
2013-01-10 04:12:00,28.6,7.9,30.15,SSW,209,7.6,7.6,41,0.00,,,0.00,VWS V14.01,2013-01-10 10:12:00,
2013-01-10 04:17:00,28.6,7.9,30.15,South,175,10.5,11.4,41,0.00,,,0.00,VWS V14.01,2013-01-10 10:17:00,
2013-01-10 04:22:00,28.6,7.9,30.15,SSE,165,8.1,8.1,41,0.00,,,0.00,VWS V14.01,2013-01-10 10:22:00,
2013-01-10 04:27:00,28.6,7.9,30.15,SSW,200,12.3,12.3,41,0.00,,,0.00,VWS V14.01,2013-01-10 10:27:00,
2013-01-10 04:32:00,28.2,7.6,30.15,SSW,197,6.3,8.1,41,0.00,,,0.00,VWS V14.01,2013-01-10 10:32:00,
2013-01-10 04:37:00,28.0,7.4,30.15,SSE,164,8.3,8.3,41,0.00,,,0.00,VWS V14.01,2013-01-10 10:37:00,
2013-01-10 04:42:00,28.2,7.6,30.15,SSE,148,11.0,11.0,41,0.00,,,0.00,VWS V14.01,2013-01-10 10:42:00,
2013-01-10 04:47:00,28.2,7.6,30.15,SSE,156,8.3,9.6,41,0.00,,,0.00,VWS V14.01,2013-01-10 10:47:00,
2013-01-10 04:52:00,28.2,7.6,30.15,SSE,166,8.3,8.3,41,0.00,,,0.00,VWS V14.01,2013-01-10 10:52:00,
2013-01-10 04:57:00,28.6,7.9,30.15,SSW,202,7.6,12.3,41,0.00,,,0.00,VWS V14.01,2013-01-10 10:57:00,
2013-01-10 05:02:00,29.3,8.0,30.12,SSE,162,10.5,10.5,40,0.00,,,0.00,VWS V14.01,2013-01-10 11:02:00,
2013-01-10 05:07:00,29.5,8.1,30.12,South,172,10.5,13.2,40,0.00,,,0.00,VWS V14.01,2013-01-10 11:07:00,
2013-01-10 05:12:00,29.5,8.1,30.12,South,182,13.2,13.2,40,0.00,,,0.00,VWS V14.01,2013-01-10 11:12:00,
2013-01-10 05:17:00,29.5,8.1,30.12,South,169,7.6,7.6,40,0.00,,,0.00,VWS V14.01,2013-01-10 11:17:00,
2013-01-10 05:22:00,29.5,8.1,30.12,SSE,160,8.3,8.3,40,0.00,,,0.00,VWS V14.01,2013-01-10 11:22:00,
2013-01-10 05:27:00,29.5,8.1,30.12,South,176,15.4,15.4,40,0.00,,,0.00,VWS V14.01,2013-01-10 11:27:00,
2013-01-10 05:32:00,29.5,8.1,30.12,SSW,196,8.3,8.3,40,0.00,,,0.00,VWS V14.01,2013-01-10 11:32:00,
2013-01-10 05:37:00,29.8,8.5,30.12,SSE,167,3.6,3.6,40,0.00,,,0.00,VWS V14.01,2013-01-10 11:37:00,
2013-01-10 05:42:00,29.8,8.5,30.12,SSW,208,5.8,5.8,40,0.00,,,0.00,VWS V14.01,2013-01-10 11:42:00,
2013-01-10 05:47:00,29.8,8.5,30.09,SE,125,6.3,6.3,40,0.00,,,0.00,VWS V14.01,2013-01-10 11:47:00,
2013-01-10 05:52:00,29.8,8.5,30.09,SSW,198,17.0,17.0,40,0.00,,,0.00,VWS V14.01,2013-01-10 11:52:00,
2013-01-10 05:57:00,30.0,8.6,30.09,SSW,212,6.3,6.3,40,0.00,,,0.00,VWS V14.01,2013-01-10 11:57:00,
2013-01-10 06:02:00,30.2,8.8,30.09,SSW,207,11.9,11.9,40,0.00,,,0.00,VWS V14.01,2013-01-10 12:02:00,
2013-01-10 06:07:00,30.2,8.8,30.12,South,177,11.0,11.0,40,0.00,,,0.00,VWS V14.01,2013-01-10 12:07:00,
2013-01-10 06:12:00,30.4,9.0,30.09,SW,218,16.3,16.3,40,0.00,,,0.00,VWS V14.01,2013-01-10 12:12:00,
2013-01-10 06:17:00,31.1,9.1,30.09,South,184,8.7,8.7,39,0.00,,,0.00,VWS V14.01,2013-01-10 12:17:00,
2013-01-10 06:22:00,30.6,8.6,30.09,SSW,203,10.5,10.5,39,0.00,,,0.00,VWS V14.01,2013-01-10 12:22:00,
2013-01-10 06:27:00,30.6,9.1,30.09,SE,143,17.9,17.9,40,0.00,,,0.00,VWS V14.01,2013-01-10 12:27:00,
2013-01-10 06:32:00,30.6,9.1,30.09,SSE,163,12.3,12.3,40,0.00,,,0.00,VWS V14.01,2013-01-10 12:32:00,
2013-01-10 06:37:00,30.9,9.4,30.09,SE,130,12.8,12.8,40,0.00,,,0.00,VWS V14.01,2013-01-10 12:37:00,
2013-01-10 06:42:00,31.1,9.6,30.09,South,174,10.1,10.1,40,0.00,,,0.00,VWS V14.01,2013-01-10 12:42:00,
2013-01-10 06:47:00,31.3,9.8,30.09,SSW,211,17.4,17.4,40,0.00,,,0.00,VWS V14.01,2013-01-10 12:47:00,
2013-01-10 06:52:00,31.5,9.9,30.09,SSE,162,7.6,7.6,40,0.00,,,0.00,VWS V14.01,2013-01-10 12:52:00,
2013-01-10 06:57:00,31.5,9.9,30.09,SSW,198,9.6,9.6,40,0.00,,,0.00,VWS V14.01,2013-01-10 12:57:00,
2013-01-10 07:02:00,31.5,9.9,30.09,South,170,8.7,8.7,40,0.00,,,0.00,VWS V14.01,2013-01-10 13:02:00,
2013-01-10 07:07:00,31.8,10.3,30.09,South,183,10.1,15.0,40,0.00,,,0.00,VWS V14.01,2013-01-10 13:07:00,
2013-01-10 07:12:00,31.8,10.3,30.09,South,180,8.7,8.7,40,0.00,,,0.00,VWS V14.01,2013-01-10 13:12:00,
2013-01-10 07:17:00,32.2,10.6,30.09,South,179,8.7,8.7,40,0.00,,,0.00,VWS V14.01,2013-01-10 13:17:00,
2013-01-10 07:22:00,31.8,10.3,30.09,South,169,8.7,8.7,40,0.00,,,0.00,VWS V14.01,2013-01-10 13:22:00,
2013-01-10 07:27:00,32.4,10.8,30.09,SSW,212,12.3,12.3,40,0.00,,,0.00,VWS V14.01,2013-01-10 13:27:00,
2013-01-10 07:32:00,32.0,10.4,30.09,SSE,159,15.4,15.4,40,0.00,,,0.00,VWS V14.01,2013-01-10 13:32:00,
2013-01-10 07:37:00,32.0,10.4,30.09,SE,139,11.0,11.0,40,0.00,,,0.00,VWS V14.01,2013-01-10 13:37:00,
2013-01-10 07:42:00,32.0,10.4,30.09,South,184,11.0,11.0,40,0.00,,,0.00,VWS V14.01,2013-01-10 13:42:00,
2013-01-10 07:47:00,31.6,10.1,30.09,SE,127,11.0,11.0,40,0.00,,,0.00,VWS V14.01,2013-01-10 13:47:00,
2013-01-10 07:52:00,31.6,10.1,30.09,SSE,156,11.9,11.9,40,0.00,,,0.00,VWS V14.01,2013-01-10 13:52:00,
2013-01-10 07:57:00,31.8,10.3,30.09,SSE,147,9.6,9.6,40,0.00,,,0.00,VWS V14.01,2013-01-10 13:57:00,
2013-01-10 08:02:00,31.8,10.3,30.09,South,175,8.7,8.7,40,0.00,,,0.00,VWS V14.01,2013-01-10 14:02:00,
2013-01-10 08:07:00,31.8,10.3,30.09,SSE,168,13.2,13.2,40,0.00,,,0.00,VWS V14.01,2013-01-10 14:07:00,
2013-01-10 08:12:00,31.8,10.3,30.09,SSW,201,12.8,12.8,40,0.00,,,0.00,VWS V14.01,2013-01-10 14:12:00,
2013-01-10 08:17:00,32.0,10.4,30.09,SSE,156,8.1,8.1,40,0.00,,,0.00,VWS V14.01,2013-01-10 14:17:00,
2013-01-10 08:22:00,32.0,10.4,30.09,SSE,162,10.5,10.5,40,0.00,,,0.00,VWS V14.01,2013-01-10 14:22:00,
2013-01-10 08:27:00,32.0,10.4,30.09,SSE,152,10.5,11.0,40,0.00,,,0.00,VWS V14.01,2013-01-10 14:27:00,
2013-01-10 08:32:00,32.4,10.8,30.09,SSW,193,10.1,15.4,40,0.00,,,0.00,VWS V14.01,2013-01-10 14:32:00,
2013-01-10 08:37:00,32.5,10.9,30.09,SSE,148,15.0,15.0,40,0.00,,,0.00,VWS V14.01,2013-01-10 14:37:00,
2013-01-10 08:42:00,32.7,11.1,30.09,SSE,155,11.0,11.0,40,0.00,,,0.00,VWS V14.01,2013-01-10 14:42:00,
2013-01-10 08:47:00,32.7,11.1,30.09,SSE,158,11.0,11.0,40,0.00,,,0.00,VWS V14.01,2013-01-10 14:47:00,
2013-01-10 08:52:00,32.7,11.1,30.09,SSW,195,11.0,11.0,40,0.00,,,0.00,VWS V14.01,2013-01-10 14:52:00,
2013-01-10 08:57:00,33.1,11.4,30.09,SE,136,6.3,7.6,40,0.00,,,0.00,VWS V14.01,2013-01-10 14:57:00,
2013-01-10 09:02:00,33.3,11.0,30.09,SSW,194,13.2,13.2,39,0.00,,,0.00,VWS V14.01,2013-01-10 15:02:00,
2013-01-10 09:07:00,33.4,11.2,30.09,South,172,11.4,11.4,39,0.00,,,0.00,VWS V14.01,2013-01-10 15:07:00,
2013-01-10 09:12:00,33.4,11.2,30.09,SSW,198,12.3,12.3,39,0.00,,,0.00,VWS V14.01,2013-01-10 15:12:00,
2013-01-10 09:17:00,33.8,10.9,30.09,South,183,11.4,11.4,38,0.00,,,0.00,VWS V14.01,2013-01-10 15:17:00,
2013-01-10 09:22:00,34.0,11.1,30.09,SE,145,11.0,15.0,38,0.00,,,0.00,VWS V14.01,2013-01-10 15:22:00,
2013-01-10 09:27:00,34.5,11.5,30.09,SSE,157,13.2,13.2,38,0.00,,,0.00,VWS V14.01,2013-01-10 15:27:00,
2013-01-10 09:32:00,34.7,11.1,30.09,SE,138,11.0,11.0,37,0.00,,,0.00,VWS V14.01,2013-01-10 15:32:00,
2013-01-10 09:37:00,34.9,11.3,30.09,SSW,203,12.3,18.3,37,0.00,,,0.00,VWS V14.01,2013-01-10 15:37:00,
2013-01-10 09:42:00,35.1,10.8,30.09,SSW,202,11.0,11.0,36,0.00,,,0.00,VWS V14.01,2013-01-10 15:42:00,
2013-01-10 09:47:00,35.4,11.1,30.09,South,172,7.6,7.6,36,0.00,,,0.00,VWS V14.01,2013-01-10 15:47:00,
2013-01-10 09:52:00,35.6,10.7,30.09,SSW,199,12.8,12.8,35,0.00,,,0.00,VWS V14.01,2013-01-10 15:52:00,
2013-01-10 09:57:00,35.6,10.7,30.09,SSW,200,13.2,13.2,35,0.00,,,0.00,VWS V14.01,2013-01-10 15:57:00,
2013-01-10 10:02:00,35.6,10.7,30.09,SSW,192,10.1,10.1,35,0.00,,,0.00,VWS V14.01,2013-01-10 16:02:00,
2013-01-10 10:07:00,35.8,10.8,30.09,SW,218,10.1,10.1,35,0.00,,,0.00,VWS V14.01,2013-01-10 16:07:00,
2013-01-10 10:12:00,36.1,10.5,30.09,SW,234,10.5,10.5,34,0.00,,,0.00,VWS V14.01,2013-01-10 16:12:00,
2013-01-10 10:17:00,36.3,10.6,30.09,SSW,206,8.7,8.7,34,0.00,,,0.00,VWS V14.01,2013-01-10 16:17:00,
2013-01-10 10:22:00,36.3,10.6,30.09,South,181,15.4,15.4,34,0.00,,,0.00,VWS V14.01,2013-01-10 16:22:00,
2013-01-10 10:27:00,36.9,11.1,30.09,SW,230,11.9,11.9,34,0.00,,,0.00,VWS V14.01,2013-01-10 16:27:00,
2013-01-10 10:32:00,37.4,10.9,30.09,SSW,201,13.2,13.2,33,0.00,,,0.00,VWS V14.01,2013-01-10 16:32:00,
2013-01-10 10:37:00,37.8,10.6,30.09,South,170,10.5,10.5,32,0.00,,,0.00,VWS V14.01,2013-01-10 16:37:00,
2013-01-10 10:42:00,38.1,10.9,30.09,South,172,8.7,10.5,32,0.00,,,0.00,VWS V14.01,2013-01-10 16:42:00,
2013-01-10 10:47:00,38.3,11.0,30.06,SSW,200,10.1,10.1,32,0.00,,,0.00,VWS V14.01,2013-01-10 16:47:00,
2013-01-10 10:52:00,38.7,10.6,30.06,SSW,202,13.2,13.2,31,0.00,,,0.00,VWS V14.01,2013-01-10 16:52:00,
2013-01-10 10:57:00,38.8,10.8,30.06,SW,214,8.1,8.7,31,0.00,,,0.00,VWS V14.01,2013-01-10 16:57:00,
2013-01-10 11:02:00,39.0,11.0,30.06,South,180,10.5,12.3,31,0.00,,,0.00,VWS V14.01,2013-01-10 17:02:00,
2013-01-10 11:07:00,39.2,11.1,30.06,South,187,8.7,8.7,31,0.00,,,0.00,VWS V14.01,2013-01-10 17:07:00,
2013-01-10 11:12:00,39.2,11.1,30.06,South,182,15.4,15.4,31,0.00,,,0.00,VWS V14.01,2013-01-10 17:12:00,
2013-01-10 11:17:00,39.7,10.9,30.06,SSW,197,13.2,13.2,30,0.00,,,0.00,VWS V14.01,2013-01-10 17:17:00,
2013-01-10 11:22:00,39.7,10.9,30.06,SSW,195,8.7,8.7,30,0.00,,,0.00,VWS V14.01,2013-01-10 17:22:00,
2013-01-10 11:27:00,39.9,11.0,30.06,South,181,8.3,8.3,30,0.00,,,0.00,VWS V14.01,2013-01-10 17:27:00,
2013-01-10 11:32:00,39.9,11.0,30.03,SSW,197,7.6,17.0,30,0.00,,,0.00,VWS V14.01,2013-01-10 17:32:00,
2013-01-10 11:37:00,40.1,11.2,30.03,SSW,198,7.6,7.6,30,0.00,,,0.00,VWS V14.01,2013-01-10 17:37:00,
2013-01-10 11:42:00,40.5,11.5,30.03,South,190,8.3,8.3,30,0.00,,,0.00,VWS V14.01,2013-01-10 17:42:00,
2013-01-10 11:47:00,40.8,11.8,30.03,SSE,153,10.1,10.1,30,0.00,,,0.00,VWS V14.01,2013-01-10 17:47:00,
2013-01-10 11:52:00,41.0,11.2,30.03,South,174,14.1,14.1,29,0.00,,,0.00,VWS V14.01,2013-01-10 17:52:00,
2013-01-10 11:57:00,41.0,11.2,30.03,South,171,11.9,11.9,29,0.00,,,0.00,VWS V14.01,2013-01-10 17:57:00,
2013-01-10 12:02:00,41.7,11.8,30.03,SSW,209,10.1,13.2,29,0.00,,,0.00,VWS V14.01,2013-01-10 18:02:00,
2013-01-10 12:07:00,42.1,12.1,30.03,SW,222,11.9,11.9,29,0.00,,,0.00,VWS V14.01,2013-01-10 18:07:00,
2013-01-10 12:12:00,42.3,12.3,30.03,SSW,206,8.7,8.7,29,0.00,,,0.00,VWS V14.01,2013-01-10 18:12:00,
2013-01-10 12:17:00,42.1,12.1,30.01,SE,139,8.3,8.3,29,0.00,,,0.00,VWS V14.01,2013-01-10 18:17:00,
2013-01-10 12:22:00,42.1,11.3,30.01,South,188,10.5,10.5,28,0.00,,,0.00,VWS V14.01,2013-01-10 18:22:00,
2013-01-10 12:27:00,41.9,11.2,30.01,SSW,198,11.0,11.0,28,0.00,,,0.00,VWS V14.01,2013-01-10 18:27:00,
2013-01-10 12:32:00,42.1,11.3,30.01,SSE,157,13.2,15.0,28,0.00,,,0.00,VWS V14.01,2013-01-10 18:32:00,
2013-01-10 12:37:00,42.1,11.3,30.01,South,177,11.0,11.0,28,0.00,,,0.00,VWS V14.01,2013-01-10 18:37:00,
2013-01-10 12:42:00,42.1,11.3,30.01,SSW,212,14.5,14.5,28,0.00,,,0.00,VWS V14.01,2013-01-10 18:42:00,
2013-01-10 12:47:00,42.1,11.3,30.01,South,186,10.1,10.1,28,0.00,,,0.00,VWS V14.01,2013-01-10 18:47:00,
2013-01-10 12:52:00,42.3,11.5,30.01,South,172,8.7,8.7,28,0.00,,,0.00,VWS V14.01,2013-01-10 18:52:00,
2013-01-10 12:57:00,42.4,11.7,30.01,SSW,199,11.9,11.9,28,0.00,,,0.00,VWS V14.01,2013-01-10 18:57:00,
2013-01-10 13:02:00,42.4,11.7,30.01,SSE,167,8.7,10.5,28,0.00,,,0.00,VWS V14.01,2013-01-10 19:02:00,
2013-01-10 13:07:00,42.6,11.8,30.01,South,184,9.6,9.6,28,0.00,,,0.00,VWS V14.01,2013-01-10 19:07:00,
2013-01-10 13:12:00,42.8,9.4,30.01,South,191,8.7,8.7,25,0.00,,,0.00,VWS V14.01,2013-01-10 19:12:00,
2013-01-10 13:17:00,43.2,9.7,30.01,SSE,159,12.3,12.3,25,0.00,,,0.00,VWS V14.01,2013-01-10 19:17:00,
2013-01-10 13:22:00,43.3,9.9,30.01,SSW,209,15.0,15.0,25,0.00,,,0.00,VWS V14.01,2013-01-10 19:22:00,
2013-01-10 13:27:00,43.3,9.9,29.98,SSW,204,13.2,13.2,25,0.00,,,0.00,VWS V14.01,2013-01-10 19:27:00,
2013-01-10 13:32:00,43.3,9.9,29.98,South,189,7.6,7.6,25,0.00,,,0.00,VWS V14.01,2013-01-10 19:32:00,
2013-01-10 13:37:00,43.3,9.9,29.98,South,171,12.3,14.1,25,0.00,,,0.00,VWS V14.01,2013-01-10 19:37:00,
2013-01-10 13:42:00,43.2,9.7,29.98,SSW,201,15.4,15.4,25,0.00,,,0.00,VWS V14.01,2013-01-10 19:42:00,
2013-01-10 13:47:00,43.2,9.7,29.98,SW,218,10.1,10.1,25,0.00,,,0.00,VWS V14.01,2013-01-10 19:47:00,
2013-01-10 13:53:00,43.2,9.7,29.98,South,179,7.6,7.6,25,0.00,,,0.00,VWS V14.01,2013-01-10 19:53:00,
2013-01-10 13:58:00,43.2,9.7,29.98,South,177,7.6,8.7,25,0.00,,,0.00,VWS V14.01,2013-01-10 19:58:00,
2013-01-10 14:02:00,43.2,9.7,29.98,South,173,5.4,7.6,25,0.00,,,0.00,VWS V14.01,2013-01-10 20:02:00,
2013-01-10 14:08:00,43.3,9.9,29.98,SSE,162,5.8,5.8,25,0.00,,,0.00,VWS V14.01,2013-01-10 20:08:00,
2013-01-10 14:13:00,43.3,9.9,29.98,South,185,8.3,8.3,25,0.00,,,0.00,VWS V14.01,2013-01-10 20:13:00,
2013-01-10 14:18:00,43.0,9.6,29.98,South,190,7.6,7.6,25,0.00,,,0.00,VWS V14.01,2013-01-10 20:18:00,
2013-01-10 14:23:00,42.8,9.4,29.98,South,171,7.6,7.6,25,0.00,,,0.00,VWS V14.01,2013-01-10 20:23:00,
2013-01-10 14:28:00,42.1,9.7,29.98,South,173,6.3,8.1,26,0.00,,,0.00,VWS V14.01,2013-01-10 20:28:00,
2013-01-10 14:33:00,41.7,9.4,29.98,South,178,8.1,8.1,26,0.00,,,0.00,VWS V14.01,2013-01-10 20:33:00,
2013-01-10 14:38:00,41.7,9.4,29.98,South,182,12.8,12.8,26,0.00,,,0.00,VWS V14.01,2013-01-10 20:38:00,
2013-01-10 14:43:00,41.7,9.4,29.98,SSW,196,8.7,9.2,26,0.00,,,0.00,VWS V14.01,2013-01-10 20:43:00,
2013-01-10 14:48:00,41.7,9.4,29.98,SSW,213,8.3,8.3,26,0.00,,,0.00,VWS V14.01,2013-01-10 20:48:00,
2013-01-10 14:53:00,41.7,9.4,29.98,South,191,8.3,8.3,26,0.00,,,0.00,VWS V14.01,2013-01-10 20:53:00,
2013-01-10 14:58:00,41.7,9.4,29.98,SW,226,5.8,5.8,26,0.00,,,0.00,VWS V14.01,2013-01-10 20:58:00,
2013-01-10 15:03:00,41.5,9.2,29.98,South,184,7.6,7.6,26,0.00,,,0.00,VWS V14.01,2013-01-10 21:03:00,
2013-01-10 15:08:00,41.5,9.2,29.98,South,190,5.4,5.4,26,0.00,,,0.00,VWS V14.01,2013-01-10 21:08:00,
2013-01-10 15:13:00,41.5,9.2,29.98,South,189,5.4,5.4,26,0.00,,,0.00,VWS V14.01,2013-01-10 21:13:00,
2013-01-10 15:18:00,41.5,9.2,29.98,South,175,9.6,9.6,26,0.00,,,0.00,VWS V14.01,2013-01-10 21:18:00,
2013-01-10 15:23:00,41.5,9.2,29.98,SSE,158,10.5,10.5,26,0.00,,,0.00,VWS V14.01,2013-01-10 21:23:00,
2013-01-10 15:28:00,41.4,9.1,29.98,SSE,154,5.8,5.8,26,0.00,,,0.00,VWS V14.01,2013-01-10 21:28:00,
2013-01-10 15:33:00,41.4,9.1,29.95,South,186,4.5,4.5,26,0.00,,,0.00,VWS V14.01,2013-01-10 21:33:00,
2013-01-10 15:38:00,41.2,8.9,29.95,South,179,8.7,8.7,26,0.00,,,0.00,VWS V14.01,2013-01-10 21:38:00,
2013-01-10 15:43:00,41.0,8.8,29.95,South,186,5.8,10.1,26,0.00,,,0.00,VWS V14.01,2013-01-10 21:43:00,
2013-01-10 15:48:00,41.0,8.8,29.95,SSW,195,6.3,8.1,26,0.00,,,0.00,VWS V14.01,2013-01-10 21:48:00,
2013-01-10 15:53:00,41.0,8.8,29.95,SSW,200,5.4,5.4,26,0.00,,,0.00,VWS V14.01,2013-01-10 21:53:00,
2013-01-10 15:58:00,41.0,8.8,29.95,SSW,201,6.3,6.3,26,0.00,,,0.00,VWS V14.01,2013-01-10 21:58:00,
2013-01-10 16:03:00,41.0,8.8,29.95,South,172,5.4,5.4,26,0.00,,,0.00,VWS V14.01,2013-01-10 22:03:00,
2013-01-10 16:08:00,41.0,8.8,29.95,South,177,8.1,8.1,26,0.00,,,0.00,VWS V14.01,2013-01-10 22:08:00,
2013-01-10 16:13:00,41.0,8.8,29.95,South,182,4.9,4.9,26,0.00,,,0.00,VWS V14.01,2013-01-10 22:13:00,
2013-01-10 16:18:00,40.6,8.4,29.95,South,169,5.8,5.8,26,0.00,,,0.00,VWS V14.01,2013-01-10 22:18:00,
2013-01-10 16:23:00,40.5,8.3,29.95,SSE,153,6.3,6.3,26,0.00,,,0.00,VWS V14.01,2013-01-10 22:23:00,
2013-01-10 16:28:00,40.3,8.1,29.95,SSE,166,4.0,4.0,26,0.00,,,0.00,VWS V14.01,2013-01-10 22:28:00,
2013-01-10 16:33:00,40.3,8.1,29.95,South,174,5.4,5.4,26,0.00,,,0.00,VWS V14.01,2013-01-10 22:33:00,
2013-01-10 16:38:00,40.3,8.1,29.95,SSE,163,5.4,5.4,26,0.00,,,0.00,VWS V14.01,2013-01-10 22:38:00,
2013-01-10 16:43:00,40.3,8.1,29.95,South,189,4.0,4.0,26,0.00,,,0.00,VWS V14.01,2013-01-10 22:43:00,
2013-01-10 16:48:00,39.7,7.7,29.95,South,177,2.7,2.7,26,0.00,,,0.00,VWS V14.01,2013-01-10 22:48:00,
2013-01-10 16:53:00,39.6,7.5,29.95,SE,144,2.2,2.2,26,0.00,,,0.00,VWS V14.01,2013-01-10 22:53:00,
2013-01-10 16:58:00,39.4,7.4,29.95,SSE,166,0.0,0.0,26,0.00,,,0.00,VWS V14.01,2013-01-10 22:58:00,
2013-01-10 17:03:00,39.2,7.2,29.92,SSE,162,0.0,0.0,26,0.00,,,0.00,VWS V14.01,2013-01-10 23:03:00,
2013-01-10 17:08:00,38.5,6.6,29.92,SSE,155,0.0,3.6,26,0.00,,,0.00,VWS V14.01,2013-01-10 23:08:00,
2013-01-10 17:13:00,38.1,6.3,29.92,SE,142,2.7,2.7,26,0.00,,,0.00,VWS V14.01,2013-01-10 23:13:00,
2013-01-10 17:19:00,38.1,6.3,29.92,ESE,123,3.1,3.1,26,0.00,,,0.00,VWS V14.01,2013-01-10 23:19:00,
2013-01-10 17:24:00,38.3,6.4,29.92,South,178,2.7,2.7,26,0.00,,,0.00,VWS V14.01,2013-01-10 23:24:00,
2013-01-10 17:29:00,38.5,6.6,29.92,SSE,149,0.0,0.0,26,0.00,,,0.00,VWS V14.01,2013-01-10 23:29:00,
2013-01-10 17:34:00,38.7,6.7,29.92,South,171,0.0,2.2,26,0.00,,,0.00,VWS V14.01,2013-01-10 23:34:00,
2013-01-10 17:39:00,39.0,7.1,29.89,SSE,151,0.0,0.0,26,0.00,,,0.00,VWS V14.01,2013-01-10 23:39:00,
2013-01-10 17:44:00,39.0,7.1,29.89,South,175,4.0,4.0,26,0.00,,,0.00,VWS V14.01,2013-01-10 23:44:00,
2013-01-10 17:49:00,39.2,7.2,29.89,SE,132,0.0,5.4,26,0.00,,,0.00,VWS V14.01,2013-01-10 23:49:00,
2013-01-10 17:54:00,39.2,7.2,29.89,SE,132,7.6,7.6,26,0.00,,,0.00,VWS V14.01,2013-01-10 23:54:00,
2013-01-10 17:59:00,39.4,7.4,29.89,South,169,6.3,8.1,26,0.00,,,0.00,VWS V14.01,2013-01-10 23:59:00,
2013-01-10 18:04:00,39.7,7.7,29.86,ESE,120,6.3,6.3,26,0.00,,,0.00,VWS V14.01,2013-01-11 00:04:00,
2013-01-10 18:09:00,39.7,7.7,29.86,SSE,168,5.8,5.8,26,0.00,,,0.00,VWS V14.01,2013-01-11 00:09:00,
2013-01-10 18:14:00,39.9,7.8,29.86,SSE,154,3.6,3.6,26,0.00,,,0.00,VWS V14.01,2013-01-11 00:14:00,
2013-01-10 18:19:00,39.9,7.8,29.86,SSE,152,7.6,7.6,26,0.00,,,0.00,VWS V14.01,2013-01-11 00:19:00,
2013-01-10 18:24:00,39.9,7.8,29.86,SE,142,6.3,6.3,26,0.00,,,0.00,VWS V14.01,2013-01-11 00:24:00,
2013-01-10 18:29:00,40.1,8.0,29.86,SSE,160,6.3,6.3,26,0.00,,,0.00,VWS V14.01,2013-01-11 00:29:00,
2013-01-10 18:34:00,40.1,8.0,29.86,SE,146,4.9,4.9,26,0.00,,,0.00,VWS V14.01,2013-01-11 00:34:00,
2013-01-10 18:39:00,40.1,8.0,29.86,South,172,6.3,6.7,26,0.00,,,0.00,VWS V14.01,2013-01-11 00:39:00,
2013-01-10 18:44:00,40.3,5.4,29.83,SSE,164,5.8,5.8,23,0.00,,,0.00,VWS V14.01,2013-01-11 00:44:00,
2013-01-10 18:49:00,40.3,8.1,29.83,SSE,153,8.7,8.7,26,0.00,,,0.00,VWS V14.01,2013-01-11 00:49:00,
2013-01-10 18:54:00,40.3,5.4,29.83,SSE,154,6.3,9.6,23,0.00,,,0.00,VWS V14.01,2013-01-11 00:54:00,
2013-01-10 18:59:00,40.3,5.4,29.83,South,172,5.4,5.4,23,0.00,,,0.00,VWS V14.01,2013-01-11 00:59:00,
2013-01-10 19:04:00,40.3,5.4,29.83,SSE,163,8.3,8.3,23,0.00,,,0.00,VWS V14.01,2013-01-11 01:04:00,
2013-01-10 19:09:00,40.3,5.4,29.83,SSE,159,11.0,11.0,23,0.00,,,0.00,VWS V14.01,2013-01-11 01:09:00,
2013-01-10 19:14:00,40.3,5.4,29.83,SE,142,8.3,8.3,23,0.00,,,0.00,VWS V14.01,2013-01-11 01:14:00,
2013-01-10 19:19:00,39.9,7.8,29.83,SE,145,5.4,5.4,26,0.00,,,0.00,VWS V14.01,2013-01-11 01:19:00,
2013-01-10 19:24:00,39.9,7.8,29.83,SSE,149,8.1,8.1,26,0.00,,,0.00,VWS V14.01,2013-01-11 01:24:00,
2013-01-10 19:29:00,39.7,7.7,29.83,SSE,164,8.7,8.7,26,0.00,,,0.00,VWS V14.01,2013-01-11 01:29:00,
2013-01-10 19:34:00,39.6,7.5,29.83,SSW,198,7.6,7.6,26,0.00,,,0.00,VWS V14.01,2013-01-11 01:34:00,
2013-01-10 19:39:00,39.4,7.4,29.83,ESE,122,5.4,5.4,26,0.00,,,0.00,VWS V14.01,2013-01-11 01:39:00,
2013-01-10 19:44:00,39.2,7.2,29.83,SE,126,4.0,6.3,26,0.00,,,0.00,VWS V14.01,2013-01-11 01:44:00,
2013-01-10 19:49:00,39.2,7.2,29.83,SE,126,5.8,5.8,26,0.00,,,0.00,VWS V14.01,2013-01-11 01:49:00,
2013-01-10 19:54:00,38.8,9.3,29.83,South,178,5.8,5.8,29,0.00,,,0.00,VWS V14.01,2013-01-11 01:54:00,
2013-01-10 19:59:00,38.8,9.3,29.83,SSE,147,9.6,9.6,29,0.00,,,0.00,VWS V14.01,2013-01-11 01:59:00,
2013-01-10 20:04:00,38.5,9.0,29.80,South,171,9.2,9.2,29,0.00,,,0.00,VWS V14.01,2013-01-11 02:04:00,
2013-01-10 20:09:00,38.1,8.7,29.80,SSE,154,7.2,7.2,29,0.00,,,0.00,VWS V14.01,2013-01-11 02:09:00,
2013-01-10 20:14:00,38.1,8.7,29.80,ESE,116,10.1,10.1,29,0.00,,,0.00,VWS V14.01,2013-01-11 02:14:00,
2013-01-10 20:19:00,36.9,10.5,29.80,SSE,163,5.4,8.3,33,0.00,,,0.00,VWS V14.01,2013-01-11 02:19:00,
2013-01-10 20:24:00,36.3,12.6,29.80,South,172,7.6,7.6,37,0.00,,,0.00,VWS V14.01,2013-01-11 02:24:00,
2013-01-10 20:29:00,36.0,13.4,29.77,South,175,8.1,8.1,39,0.00,,,0.00,VWS V14.01,2013-01-11 02:29:00,
2013-01-10 20:34:00,35.8,13.8,29.77,South,182,8.1,8.1,40,0.00,,,0.00,VWS V14.01,2013-01-11 02:34:00,
2013-01-10 20:39:00,35.6,13.7,29.77,SSW,193,7.6,7.6,40,0.00,,,0.00,VWS V14.01,2013-01-11 02:39:00,
2013-01-10 20:44:00,35.6,14.2,29.77,South,177,4.0,4.0,41,0.00,,,0.00,VWS V14.01,2013-01-11 02:44:00,
2013-01-10 20:49:00,35.4,14.6,29.77,SSE,149,4.0,4.0,42,0.00,,,0.00,VWS V14.01,2013-01-11 02:49:00,
2013-01-10 20:54:00,35.1,15.4,29.77,South,173,5.4,6.3,44,0.00,,,0.00,VWS V14.01,2013-01-11 02:54:00,
2013-01-10 20:59:00,34.9,16.2,29.77,SSE,164,4.0,4.0,46,0.00,,,0.00,VWS V14.01,2013-01-11 02:59:00,
2013-01-10 21:04:00,34.3,17.6,29.77,South,169,6.3,6.3,50,0.00,,,0.00,VWS V14.01,2013-01-11 03:04:00,
2013-01-10 21:09:00,34.3,18.5,29.77,SSE,153,4.9,8.7,52,0.00,,,0.00,VWS V14.01,2013-01-11 03:09:00,
2013-01-10 21:14:00,34.0,18.7,29.77,SE,139,14.1,14.1,53,0.00,,,0.00,VWS V14.01,2013-01-11 03:14:00,
2013-01-10 21:19:00,33.8,19.8,29.74,South,183,4.0,4.0,56,0.00,,,0.00,VWS V14.01,2013-01-11 03:19:00,
2013-01-10 21:24:00,33.8,20.2,29.74,ESE,115,4.9,4.9,57,0.00,,,0.00,VWS V14.01,2013-01-11 03:24:00,
2013-01-10 21:29:00,33.8,20.6,29.74,East,100,5.8,5.8,58,0.00,,,0.00,VWS V14.01,2013-01-11 03:29:00,
2013-01-10 21:34:00,33.8,21.0,29.74,SE,125,5.4,5.8,59,0.00,,,0.00,VWS V14.01,2013-01-11 03:34:00,
2013-01-10 21:39:00,33.6,21.6,29.74,East,96,6.3,6.3,61,0.00,,,0.00,VWS V14.01,2013-01-11 03:39:00,
2013-01-10 21:45:00,33.6,21.6,29.71,SE,144,4.9,4.9,61,0.00,,,0.00,VWS V14.01,2013-01-11 03:45:00,
2013-01-10 21:50:00,33.4,22.2,29.71,South,176,5.4,5.4,63,0.00,,,0.00,VWS V14.01,2013-01-11 03:50:00,
2013-01-10 21:55:00,33.4,22.2,29.71,SE,127,4.9,4.9,63,0.00,,,0.00,VWS V14.01,2013-01-11 03:55:00,
2013-01-10 22:00:00,33.4,22.6,29.71,South,173,4.0,4.0,64,0.00,,,0.00,VWS V14.01,2013-01-11 04:00:00,
2013-01-10 22:05:00,33.4,23.3,29.71,SSE,154,4.9,4.9,66,0.00,,,0.00,VWS V14.01,2013-01-11 04:05:00,
2013-01-10 22:10:00,33.4,23.3,29.71,ESE,123,5.4,6.3,66,0.00,,,0.00,VWS V14.01,2013-01-11 04:10:00,
2013-01-10 22:15:00,33.4,24.4,29.71,ESE,103,3.1,3.1,69,0.00,,,0.00,VWS V14.01,2013-01-11 04:15:00,
2013-01-10 22:20:00,33.4,24.4,29.71,SE,142,0.0,0.0,69,0.00,,,0.00,VWS V14.01,2013-01-11 04:20:00,
2013-01-10 22:25:00,33.4,24.7,29.71,East,88,2.7,2.7,70,0.00,,,0.00,VWS V14.01,2013-01-11 04:25:00,
2013-01-10 22:30:00,33.3,24.5,29.71,SE,141,0.0,0.0,70,0.00,,,0.00,VWS V14.01,2013-01-11 04:30:00,
2013-01-10 22:35:00,33.3,24.5,29.71,South,181,0.0,0.0,70,0.00,,,0.00,VWS V14.01,2013-01-11 04:35:00,
2013-01-10 22:40:00,33.3,24.9,29.71,SE,128,0.0,0.0,71,0.00,,,0.00,VWS V14.01,2013-01-11 04:40:00,
2013-01-10 22:45:00,33.3,24.9,29.71,SE,142,2.2,2.2,71,0.00,,,0.00,VWS V14.01,2013-01-11 04:45:00,
2013-01-10 22:50:00,33.3,25.2,29.71,South,170,0.0,2.7,72,0.00,,,0.00,VWS V14.01,2013-01-11 04:50:00,
2013-01-10 22:55:00,33.4,25.4,29.68,East,101,0.0,4.9,72,0.00,,,0.00,VWS V14.01,2013-01-11 04:55:00,
2013-01-10 23:00:00,33.4,25.7,29.68,ESE,123,0.0,5.8,73,0.00,,,0.00,VWS V14.01,2013-01-11 05:00:00,
2013-01-10 23:02:00,33.4,25.7,29.68,ESE,123,0.0,0.0,73,0.00,,,0.00,VWS V14.01,2013-01-11 05:02:00,
2013-01-10 23:03:00,33.4,25.7,29.68,SE,129,2.7,2.7,73,0.00,,,0.00,VWS V14.01,2013-01-11 05:03:00,
2013-01-10 23:08:00,33.6,26.2,29.68,ESE,110,3.1,3.1,74,0.00,,,0.00,VWS V14.01,2013-01-11 05:08:00,
2013-01-10 23:13:00,33.6,26.2,29.68,East,100,6.3,6.3,74,0.00,,,0.00,VWS V14.01,2013-01-11 05:13:00,
2013-01-10 23:18:00,33.6,26.2,29.68,SSW,195,4.9,4.9,74,0.00,,,0.00,VWS V14.01,2013-01-11 05:18:00,
2013-01-10 23:23:00,33.6,26.6,29.68,South,173,0.0,3.6,75,0.00,,,0.00,VWS V14.01,2013-01-11 05:23:00,
2013-01-10 23:28:00,33.6,26.9,29.68,SE,133,6.3,6.3,76,0.00,,,0.00,VWS V14.01,2013-01-11 05:28:00,
2013-01-10 23:33:00,33.6,26.9,29.68,SSE,166,3.1,3.1,76,0.00,,,0.00,VWS V14.01,2013-01-11 05:33:00,
2013-01-10 23:38:00,33.6,26.9,29.68,SSE,162,0.0,0.0,76,0.00,,,0.00,VWS V14.01,2013-01-11 05:38:00,
2013-01-10 23:43:00,33.6,26.9,29.65,SE,135,0.0,0.0,76,0.00,,,0.00,VWS V14.01,2013-01-11 05:43:00,
2013-01-10 23:48:00,33.6,26.9,29.65,South,179,0.0,0.0,76,0.00,,,0.00,VWS V14.01,2013-01-11 05:48:00,
2013-01-10 23:53:00,33.6,27.2,29.65,SSE,149,2.7,2.7,77,0.00,,,0.00,VWS V14.01,2013-01-11 05:53:00,
2013-01-10 23:58:00,33.6,27.2,29.65,SSE,161,2.7,2.7,77,0.00,,,0.00,VWS V14.01,2013-01-11 05:58:00,